This is the latest recevied weather packets stored in our database for station/object KF0TNT. If no packets are shown the sender has not sent any weather packets the latest 10 day(s).
| Time | Temp. | Humidity | Pressure | Rain* | Wind** | Luminosity | Snow |
|---|---|---|---|---|---|---|---|
| 1777991475 | 0.56° C | 94% | 1015.4 hPa | 0 mm | - | 30 W/m² | - |
| 1777991172 | 0.56° C | 95% | 1015.5 hPa | 0 mm | - | 31 W/m² | - |
| 1777990869 | 0.56° C | 95% | 1015.4 hPa | 0 mm | - | 22 W/m² | - |
| 1777990567 | 0.56° C | 95% | 1015.4 hPa | 0 mm | - | 22 W/m² | - |
| 1777989960 | 0.56° C | 95% | 1015.1 hPa | 0 mm | - | 30 W/m² | - |
| 1777989656 | 1.11° C | 95% | 1015.4 hPa | 0 mm | - | 15 W/m² | - |
| 1777989353 | 1.11° C | 94% | 1015.3 hPa | 0 mm | - | 22 W/m² | - |
| 1777989049 | 1.11° C | 94% | 1015.1 hPa | 0 mm | - | 17 W/m² | - |
| 1777988745 | 1.11° C | 93% | 1015 hPa | 0 mm | - | 18 W/m² | - |
| 1777988442 | 1.11° C | 93% | 1015.1 hPa | 0 mm | - | 14 W/m² | - |
| 1777988139 | 1.67° C | 93% | 1014.9 hPa | 0 mm | - | 11 W/m² | - |
| 1777987835 | 1.67° C | 92% | 1015.4 hPa | 0 mm | - | 17 W/m² | - |
| 1777987532 | 1.67° C | 92% | 1014.9 hPa | 0 mm | - | 17 W/m² | - |
| 1777987230 | 1.67° C | 92% | 1014.9 hPa | 0 mm | - | 12 W/m² | - |
| 1777986926 | 2.22° C | 92% | 1014.9 hPa | 0 mm | - | 16 W/m² | - |
| 1777986624 | 2.22° C | 92% | 1014.9 hPa | 0 mm | - | 12 W/m² | - |
| 1777986322 | 2.22° C | 93% | 1014.6 hPa | 0 mm | - | 7 W/m² | - |
| 1777986021 | 2.22° C | 92% | 1014.6 hPa | 0 mm | - | 5 W/m² | - |
| 1777985716 | 2.22° C | 92% | 1014.5 hPa | 0 mm | - | 6 W/m² | - |
| 1777985412 | 2.78° C | 91% | 1014.6 hPa | 0 mm | - | 6 W/m² | - |
| 1777985104 | 2.78° C | 91% | 1014.1 hPa | 0 mm | - | 4 W/m² | - |
| 1777984800 | 3.33° C | 91% | 1014.1 hPa | 0 mm | - | 5 W/m² | - |
| 1777984497 | 3.89° C | 91% | 1014.1 hPa | 0 mm | - | 4 W/m² | - |
| 1777984192 | 3.89° C | 90% | 1013.9 hPa | 0 mm | - | 3 W/m² | - |
| 1777983890 | 4.44° C | 89% | 1013.8 hPa | 0 mm | - | 2 W/m² | - |
* Rain latest hour (hover to see other rain measurements)
** Current wind speed in m/s (hover to see current wind gust speed)